Hourly Data Report for September 08, 2017

All times are specified in Local Standard Time (LST). Add 1 hour to adjust for Daylight Saving Time where and when it is observed.

CLYDE RIVER A
NUNAVUT

70°29'09.000" N
68°31'01.000" W
26.50 m
2400804
71090
YCY

Download Data

Hourly Data (September 2017)
Hourly Data Report for September 8, 2017
Temp Definition
°C
Dew Point Temp Definition
°C
Rel Hum Definition
%
Wind Dir Definition
10's deg

Wind Spd Definition
km/h
Visibility Definition
km
Stn Press Definition
kPa
Hmdx Definition


Wind Chill Definition


Weather Definition


TIME
00:00 Legend Double Dagger 1.7 -3.3 70 20 17 16.1 100.57     LegendNANA
01:00 Legend Double Dagger 1.3 -3.4 71 23 21 16.1 100.52     LegendNANA
02:00 Legend Double Dagger 1.4 -3.6 69 21 17 16.1 100.47     LegendNANA
03:00 Legend Double Dagger 1.1 -3.8 70 20 24 16.1 100.40     LegendNANA
04:00 Legend Double Dagger 1.1 -4.0 69 24 17 16.1 100.34     LegendNANA
05:00 Legend Double Dagger 0.6 -3.5 74 25 13 16.1 100.29     LegendNANA
06:00 Legend Double Dagger 1.2 -4.5 66 22 11 16.1 100.25     LegendNANA
07:00 Legend Double Dagger 1.7 -4.3 65 22 32 16.1 100.18     LegendNANA
08:00 Legend Double Dagger 2.1 -4.8 61 23 45 16.1 100.07     LegendNANA
09:00 Legend Double Dagger 2.0 -4.8 61 23 41 16.1 99.99     LegendNANA
10:00 Legend Double Dagger 2.2 -4.6 61 21 32 16.1 99.96     LegendNANA
11:00 Legend Double Dagger 3.0 -4.5 58 19 18 16.1 99.86     LegendNANA
12:00 Legend Double Dagger 2.6 -4.7 59 19 26 16.1 99.75     Rain
13:00 Legend Double Dagger 3.1 -4.5 57 18 18 16.1 99.67     LegendNANA
14:00 Legend Double Dagger 3.9 -2.7 62 19 32 16.1 99.53     LegendNANA
15:00 Legend Double Dagger 3.8 -2.6 63 21 32 16.1 99.43     LegendNANA
16:00 Legend Double Dagger 3.6 -2.2 66 18 24 16.1 99.33     LegendNANA
17:00 Legend Double Dagger 3.5 -1.6 69 17 26 16.1 99.19     LegendNANA
18:00 Legend Double Dagger 4.0 -1.7 67 17 30 16.1 99.02     LegendNANA
19:00 Legend Double Dagger 3.9 -1.1 70 17 32 16.1 98.87     LegendNANA
20:00 Legend Double Dagger 3.7 -0.5 74 16 34 16.1 98.75     LegendNANA
21:00 Legend Double Dagger 3.4 -0.3 77 17 41 16.1 98.59     LegendNANA
22:00 Legend Double Dagger 3.4 -0.4 76 16 28 16.1 98.47     LegendNANA
23:00 Legend Double Dagger 3.5 -0.2 77 16 35 16.1 98.32     Rain

Notes on Data Quality.

Legend

  • E = Estimated
  • M = Missing
  • NA = Not Available
  • ‡ = Partner data that is not subject to review by the National Climate Archives
Date modified: